Weather History for PHJR - March, 2014

Change the Weather History Date:

Saturday, March 15, 2014

  Actual Average (PHNL) Record (PHNL)
Temperature  
Mean Temperature 72 °F 74 °F  
Max Temperature 79 °F 81 °F 87 °F (1996)
Min Temperature 66 °F 68 °F 58 °F (1993)
Degree Days  
Heating Degree Days 0 0  
Month to date heating degree days 0  
Since 1 July heating degree days 0  
Cooling Degree Days 8 9  
Month to date cooling degree days 134  
Year to date cooling degree days 616  
Growing Degree Days 22 (Base 50)    
Moisture  
Dew Point 60 °F    
Average Humidity 69    
Maximum Humidity 81    
Minimum Humidity 56    
Precipitation  
Precipitation 0.00 in 0.06 in 0.87 in (1968)
Month to date precipitation 1.05  
Year to date precipitation 5.35  
Snow  
Snow 0.00 in - - ()
Month to date snowfall  
Since 1 July snowfall  
Snow Depth -    
Sea Level Pressure  
Sea Level Pressure 30.12 in    
Wind  
Wind Speed 9 mph (NNE)    
Max Wind Speed 16 mph    
Max Gust Speed 31 mph    
Visibility 10 miles    
Events Rain    
T = Trace of Precipitation, MM = Missing Value Source: NWS Daily Summary

Daily Weather History Graph

Daily Weather History Graph

Search for Another Location

Airport or City:

Trip Planner

Search our weather history database for the weather conditions in past years. The results will help you decide how hot, cold, wet, or windy it might be!

Date:

Astronomy

Mar. 15, 2014 Rise Set
Actual Time 6:40 AM HST 6:41 PM HST
Civil Twilight 6:18 AM HST 7:03 PM HST
Nautical Twilight 5:52 AM HST 7:29 PM HST
Astronomical Twilight 5:26 AM HST 7:55 PM HST
Moon 6:11 PM HST (3/15) 5:55 AM HST (3/15)
Length of Visible Light 12h 45m
Length of Day
12h 01m
Waxing Gibbous, 99% of the Moon is Illuminated
Mar 15
Waxing Gibbous
Mar 16
Full
Mar 23
Last Quarter
Mar 30
New
Apr 6
First Quarter

Hourly Weather History & Observations

Time (HST) Temp. Dew Point Humidity Pressure Visibility Wind Dir Wind Speed Gust Speed Precip Events Conditions
12:53 AM 70.0 °F 62.1 °F 76% 30.11 in 10.0 mi Variable 4.6 mph - N/A   Overcast
1:53 AM 71.1 °F 64.0 °F 78% 30.09 in 10.0 mi NE 8.1 mph - N/A   Overcast
2:45 AM 71.6 °F 64.4 °F 78% 30.07 in 10.0 mi Variable 5.8 mph - N/A   Partly Cloudy
2:53 AM 70.0 °F 64.0 °F 81% 30.09 in 10.0 mi Variable 5.8 mph - N/A   Scattered Clouds
3:53 AM 70.0 °F 64.0 °F 81% 30.07 in 9.0 mi NNE 13.8 mph 24.2 mph 0.00 in Rain Light Rain
4:53 AM 69.1 °F 63.0 °F 81% 30.08 in 10.0 mi Variable 4.6 mph - 0.00 in   Mostly Cloudy
5:53 AM 69.1 °F 63.0 °F 81% 30.10 in 10.0 mi Variable 3.5 mph - N/A   Partly Cloudy
6:53 AM 70.0 °F 62.1 °F 76% 30.12 in 10.0 mi NNE 8.1 mph 16.1 mph N/A   Overcast
7:53 AM 72.0 °F 64.0 °F 76% 30.14 in 10.0 mi NNE 10.4 mph 17.3 mph N/A   Overcast
8:53 AM 73.9 °F 62.1 °F 66% 30.16 in 10.0 mi NNE 12.7 mph 26.5 mph N/A   Clear
9:53 AM 75.9 °F 60.1 °F 58% 30.14 in 10.0 mi NNE 16.1 mph 24.2 mph N/A   Clear
10:53 AM 78.1 °F 63.0 °F 60% 30.13 in 10.0 mi NNE 9.2 mph 26.5 mph N/A   Partly Cloudy
11:53 AM 78.1 °F 62.1 °F 58% 30.12 in 10.0 mi North 11.5 mph 26.5 mph N/A   Partly Cloudy
12:53 PM 78.1 °F 62.1 °F 58% 30.10 in 10.0 mi North 15.0 mph 27.6 mph N/A   Partly Cloudy
1:53 PM 79.0 °F 62.1 °F 56% 30.08 in 10.0 mi NNE 12.7 mph 28.8 mph N/A   Partly Cloudy
2:53 PM 77.0 °F 61.0 °F 58% 30.06 in 10.0 mi NNE 15.0 mph 28.8 mph N/A   Partly Cloudy
3:53 PM 75.0 °F 61.0 °F 62% 30.07 in 10.0 mi NNE 15.0 mph 29.9 mph N/A   Clear
4:53 PM 73.0 °F 59.0 °F 61% 30.08 in 10.0 mi NNE 12.7 mph 27.6 mph N/A   Clear
5:53 PM 69.1 °F 59.0 °F 70% 30.10 in 10.0 mi NNE 10.4 mph 31.1 mph N/A   Scattered Clouds
6:53 PM 68.0 °F 57.9 °F 70% 30.12 in 10.0 mi NE 8.1 mph 20.7 mph N/A   Clear
7:53 PM 66.9 °F 57.9 °F 73% 30.13 in 10.0 mi NNE 12.7 mph 24.2 mph N/A   Clear
8:53 PM 66.9 °F 57.0 °F 70% 30.17 in 10.0 mi NNE 8.1 mph 20.7 mph N/A   Mostly Cloudy
9:53 PM 66.9 °F 55.9 °F 68% 30.17 in 10.0 mi NNE 8.1 mph 17.3 mph N/A   Partly Cloudy
10:53 PM 66.9 °F 54.0 °F 63% 30.17 in 10.0 mi NNE 12.7 mph 21.9 mph N/A   Scattered Clouds
11:26 PM 66.2 °F 53.6 °F 64% 30.15 in 10.0 mi NNE 8.1 mph - N/A   Mostly Cloudy
11:48 PM 66.2 °F 53.6 °F 64% 30.16 in 10.0 mi Variable 5.8 mph - N/A   Partly Cloudy
11:53 PM 66.0 °F 54.0 °F 65% 30.18 in 10.0 mi Variable 4.6 mph - N/A   Clear